Weather History for Akron, OH

Change the Weather History Date:

Wednesday, February 6, 2013

  Actual Average (KCAK) Record (KCAK)
Temperature  
Mean Temperature 23 °F 27 °F  
Max Temperature 30 °F 35 °F 55 °F (1938)
Min Temperature 16 °F 20 °F -12 °F (1918)
Degree Days  
Heating Degree Days 42 38  
Month to date heating degree days 228  
Since 1 July heating degree days 3764  
Cooling Degree Days 0 0  
Month to date cooling degree days 0  
Year to date cooling degree days 0  
Moisture  
Dew Point 17 °F    
Average Humidity 72    
Maximum Humidity 93    
Minimum Humidity 40    
Precipitation  
Precipitation 0.00 in 0.08 in 1.28 in (2008)
Month to date precipitation 0.49  
Year to date precipitation 3.10  
Snow  
Snow 0.00 in 0.40 in - ()
Month to date snowfall 2.3  
Since 1 July snowfall 28.3  
Snow Depth -    
Sea Level Pressure  
Sea Level Pressure 30.18 in    
Wind  
Wind Speed 7 mph (NW)    
Max Wind Speed 14 mph    
Max Gust Speed 18 mph    
Visibility 8 miles    
Events Snow    
T = Trace of Precipitation, MM = Missing Value Source: NWS Daily Summary

Daily Weather History Graph

Daily Weather History Graph

Search for Another Location

Airport:

Trip Planner

Search our weather history database for the weather conditions in past years. The results will help you decide how hot, cold, wet, or windy it might be!

Date:

Astronomy

Feb. 06, 2013 Rise Set
Actual Time 7:31 AM EST 5:49 PM EST
Civil Twilight 7:02 AM EST 6:18 PM EST
Nautical Twilight 6:29 AM EST 6:50 PM EST
Astronomical Twilight 5:57 AM EST 7:22 PM EST
Moon 4:14 AM EST (2/6) 2:05 PM EST (2/6)
Length of Visible Light 11h 15m
Length of Day
10h 18m
Waning Crescent, 17% of the Moon is Illuminated
Feb 6
Waning Crescent
Feb 10
New
Feb 17
First Quarter
Feb 25
Full
Mar 4
Last Quarter

Hourly Weather History & Observations

Time (EST) Temp. Windchill Dew Point Humidity Pressure Visibility Wind Dir Wind Speed Gust Speed Precip Events Conditions
12:54 AM 27.0 °F 19.5 °F 24.1 °F 89% 29.98 in 6.0 mi WSW 6.9 mph - N/A   Overcast
1:06 AM 26.6 °F 21.2 °F 24.8 °F 93% 29.94 in 6.0 mi WSW 4.6 mph - N/A   Overcast
1:20 AM 26.6 °F 19.1 °F 24.8 °F 93% 29.94 in 6.0 mi WSW 6.9 mph - N/A   Overcast
1:50 AM 26.6 °F 19.1 °F 24.8 °F 93% 29.95 in 5.0 mi West 6.9 mph - N/A   Overcast
1:54 AM 26.6 °F 19.1 °F 24.8 °F 93% 29.96 in 5.0 mi West 6.9 mph - N/A   Overcast
2:54 AM 28.0 °F 18.6 °F 24.1 °F 85% 30.01 in 6.0 mi WNW 10.4 mph - N/A   Overcast
3:52 AM 28.4 °F 19.1 °F 24.8 °F 86% 30.01 in 6.0 mi WNW 10.4 mph - N/A   Overcast
3:54 AM 28.0 °F 18.1 °F 24.1 °F 85% 30.05 in 6.0 mi WNW 11.5 mph - N/A   Overcast
4:54 AM 28.0 °F 19.3 °F 23.0 °F 81% 30.07 in 7.0 mi WNW 9.2 mph - N/A   Overcast
5:54 AM 28.0 °F 17.5 °F 21.9 °F 78% 30.12 in 10.0 mi WNW 12.7 mph 18.4 mph N/A   Overcast
6:37 AM 24.8 °F 12.9 °F 19.4 °F 80% 30.11 in 9.0 mi North 13.8 mph - N/A   Overcast
6:54 AM 24.8 °F 14.0 °F 19.4 °F 80% 30.12 in 9.0 mi North 11.5 mph - N/A   Overcast
7:19 AM 24.8 °F 13.4 °F 17.6 °F 74% 30.14 in 9.0 mi North 12.7 mph - N/A   Overcast
7:33 AM 24.8 °F 15.3 °F 17.6 °F 74% 30.15 in 9.0 mi NNW 9.2 mph - N/A   Overcast
7:54 AM 23.0 °F 11.7 °F 16.0 °F 74% 30.22 in 8.0 mi NW 11.5 mph - N/A   Overcast
8:20 AM 23.0 °F 12.4 °F 17.6 °F 80% 30.19 in 3.0 mi NNW 10.4 mph - 0.00 in Snow Light Snow
8:29 AM 23.0 °F 14.7 °F 17.6 °F 80% 30.19 in 2.0 mi NNW 6.9 mph - 0.00 in Snow Light Snow
8:49 AM 23.0 °F 15.8 °F 17.6 °F 80% 30.19 in 3.0 mi NNW 5.8 mph - 0.00 in Snow Light Snow
8:54 AM 23.0 °F 14.7 °F 17.1 °F 78% 30.24 in 3.0 mi North 6.9 mph - 0.00 in Snow Light Snow
9:33 AM 21.2 °F 9.5 °F 14.0 °F 74% 30.22 in 2.5 mi North 11.5 mph - 0.00 in Snow Light Snow
9:41 AM 21.2 °F 8.9 °F 14.0 °F 74% 30.22 in 9.0 mi North 12.7 mph - N/A   Overcast
9:54 AM 23.0 °F 13.1 °F 12.0 °F 63% 30.27 in 10.0 mi North 9.2 mph - 0.00 in   Overcast
10:54 AM 25.0 °F 18.1 °F 12.9 °F 60% 30.27 in 10.0 mi North 5.8 mph - N/A   Clear
11:54 AM 27.0 °F 21.6 °F 12.9 °F 56% 30.27 in 10.0 mi North 4.6 mph - N/A   Clear
12:54 PM 28.0 °F 20.0 °F 12.0 °F 51% 30.27 in 10.0 mi North 8.1 mph - N/A   Clear
1:54 PM 28.0 °F - 10.9 °F 49% 30.27 in 10.0 mi Calm Calm - N/A   Clear
2:54 PM 30.0 °F - 10.9 °F 45% 30.28 in 10.0 mi Calm Calm - N/A   Clear
3:54 PM 30.9 °F - 10.0 °F 42% 30.28 in 10.0 mi Calm Calm - N/A   Clear
4:54 PM 30.9 °F - 9.0 °F 40% 30.28 in 10.0 mi Calm Calm - N/A   Clear
5:54 PM 25.0 °F 17.1 °F 12.0 °F 58% 30.29 in 10.0 mi SSW 6.9 mph - N/A   Clear
6:54 PM 25.0 °F 20.7 °F 12.9 °F 60% 30.31 in 10.0 mi South 3.5 mph - N/A   Clear
7:54 PM 17.1 °F - 10.9 °F 77% 30.34 in 10.0 mi Calm Calm - N/A   Clear
8:54 PM 17.1 °F - 10.0 °F 74% 30.34 in 10.0 mi Calm Calm - N/A   Clear
9:54 PM 16.0 °F - 10.0 °F 77% 30.34 in 9.0 mi Calm Calm - N/A   Clear
10:54 PM 23.0 °F 18.4 °F 12.0 °F 63% 30.31 in 10.0 mi ESE 3.5 mph - N/A   Clear
11:54 PM 21.9 °F 15.7 °F 10.9 °F 63% 30.29 in 10.0 mi SE 4.6 mph - N/A   Clear